Location: Conjunto Santa Maria
(19.9513°S, 43.9599°W)
Time: 12:22:42
(UTC+00:00)

GPS 2-04 Rocket1 - Pass Details

Date: 21 January 2021
Orbit: 416 x 543 km, 35.6° (Epoch: 03 March)

Event Time Altitude Azimuth Distance (km) Brightness Sun altitude
Rises 21:59:08 0° 240° (WSW) 2,367 8.6 -4.8°
Reaches altitude 10° 22:01:16 10° 241° (WSW) 1,495 6.9 -5.2°
Maximum altitude 22:04:39 77° 328° (NNW) 431 2.3 -6.0°
Drops below altitude 10° 22:08:01 10° 53° (NE) 1,492 4.4 -6.7°
Enters shadow 22:08:23 - 54° (NE) 1,636 4.6 -6.8°
